カタログに戻る

LEMUR 2 MONSON

運用中科学SSO
NORAD 42839·PAYLOAD·🇺🇸 United States

打ち上げ Jul 14, 2017 から Baikonur Cosmodrome

Loading…

次のパス (今後24時間)

TLE

最新Source: Space-Track

元期: Sep 14, 2026, 22:34 UTC

1 42839U 17042Q   26257.94049902  .00015792  00000-0  54098-3 0  9992
2 42839  97.4122  78.1755 0007123  44.3761 315.8049 15.30269809501889

AllMySatでLEMUR 2 MONSONをリアルタイム追跡

Download on the App Store